[[{"header":{"parameterUnit":"m.s-1","parameterCategory":1,"la1":30.2991,"la2":30.254,"lo1":-89.0895,"lo2":-89.0444,"dy":0.0017,"dx":0.0017,"nx":28,"ny":28,"refTime":"2024-05-21T21:00:00:Z","depth":0,"parameterNumber":2,"parameterNumberName":"U-component_of_WINDS"},"data":[0,0,0,0,0,0,0,0,0,0,0,0,0,0,0,0,0,0,0,0,0,0,0,0,0,0,0,0,0,0,0,0,0,0,0,0,0,0,0,0,0,0,0,0,0,0,0,0,0,0,0,0,0,0,0,0,0,0,-2.4305,-2.4305,0,-2.4304,-2.4304,-2.4304,-2.4262,-2.4261,-2.426,-2.4258,-2.4259,-2.426,-2.4261,0,0,0,0,0,0,0,0,0,0,0,0,0,-2.4272,-2.4273,-2.4305,-2.4305,-2.4305,-2.4304,-2.4304,-2.4304,-2.4262,-2.4261,-2.4259,-2.4258,-2.4259,-2.426,-2.4262,0,0,0,0,0,0,0,0,0,0,0,0,0,-2.428,-2.4273,-2.4305,-2.4283,-2.4282,-2.4304,-2.4304,-2.4304,-2.4262,-2.4261,-2.4259,-2.4257,-2.4259,-2.426,-2.4262,-2.4305,0,0,-2.4267,-2.4267,0,0,0,0,0,0,0,0,-2.428,-2.4282,-2.4287,-2.4285,-2.4283,-2.4281,-2.4293,-2.4304,-2.4263,-2.427,-2.4258,-2.4257,-2.4268,-2.4269,-2.4272,-2.4305,-2.4305,-2.4267,-2.4268,-2.4268,-2.4269,0,0,0,0,0,0,0,-2.4279,-2.4281,-2.4304,-2.4287,-2.4284,-2.4275,-2.4274,-2.4295,-2.4278,-2.4269,-2.4266,-2.4266,-2.4267,-2.4271,-2.4272,-2.4305,-2.4267,-2.4268,-2.4269,-2.427,-2.4374,-2.4376,0,0,0,0,0,0,-2.4281,-2.4281,-2.4304,-2.4304,-2.4277,-2.4277,-2.4276,-2.4283,-2.4278,-2.4275,-2.4268,-2.4264,-2.4269,-2.427,-2.4272,-2.4322,-2.4268,-2.427,-2.4271,-2.4372,-2.4375,-2.4377,0,0,0,0,0,0,-2.4281,-2.4284,-2.4304,-2.4292,-2.4294,-2.4279,-2.4288,-2.4284,-2.4288,-2.4277,-2.4274,-2.4275,-2.4268,-2.427,-2.4297,-2.4322,-2.4271,-2.4272,-2.437,-2.4373,-2.4376,-2.4423,0,0,0,0,0,0,-2.428,-2.4284,-2.4299,-2.4293,-2.4295,-2.4329,-2.4289,-2.4286,-2.4291,-2.4287,-2.4283,-2.4281,-2.4267,-2.4295,-2.4299,-2.4323,-2.4273,-2.4368,-2.4372,-2.4375,-2.4419,-2.4427,-2.4434,0,0,0,0,0,-2.4279,-2.4313,-2.43,-2.4303,-2.4313,-2.433,-2.4331,-2.4314,-2.4293,-2.4309,-2.4302,-2.4281,-2.4319,-2.4298,-2.4302,-2.4327,-2.4366,-2.4371,-2.4374,-2.4416,-2.4426,-2.4434,0,0,0,0,0,0,-2.4323,-2.4311,-2.4297,-2.433,-2.4331,-2.4323,-2.4342,-2.4325,-2.4333,-2.4328,-2.4307,-2.4307,-2.4338,-2.4335,-2.4313,-2.4369,-2.4339,-2.4344,-2.4369,-2.4378,-2.4386,-2.4385,-2.4275,0,0,0,0,0,-2.4336,-2.435,-2.434,-2.4369,-2.4371,-2.4357,-2.4363,-2.435,-2.4351,-2.4352,-2.4347,-2.4349,-2.4361,-2.437,-2.4381,-2.442,-2.4419,-2.4439,-2.4446,-2.4453,-2.4457,-2.4478,-2.4487,-2.439,-2.439,-2.439,0,0,-2.4364,-2.4359,-2.4369,-2.4378,-2.4378,-2.4393,-2.4357,-2.4375,-2.4387,-2.4354,-2.438,-2.4377,-2.4378,-2.4412,-2.4426,-2.441,-2.4484,-2.4458,-2.4463,-2.4464,-2.4483,-2.4492,-2.45,-2.4393,-2.4392,-2.4392,0,0,-2.4422,-2.442,-2.4445,-2.4445,-2.4445,-2.4436,-2.4442,-2.4437,-2.4434,-2.4459,-2.4435,-2.445,-2.4472,-2.4474,-2.4478,-2.454,-2.4521,-2.4544,-2.4582,-2.4603,-2.461,-2.4617,-2.4639,-2.4647,-2.4549,-2.4549,-2.4549,0,-2.4456,-2.4478,-2.446,-2.4479,-2.4484,-2.4456,-2.4482,-2.4484,-2.4488,-2.4492,-2.4475,-2.4503,-2.4502,-2.4536,-2.4551,-2.4555,-2.4562,-2.4543,-2.4611,-2.4617,-2.4623,-2.4644,-2.4652,-2.4552,-2.4551,-2.4551,-2.4551,0,-2.4521,-2.4536,-2.4557,-2.4561,-2.4568,-2.4591,-2.4577,-2.4587,-2.4574,-2.4567,-2.4595,-2.4593,-2.4603,-2.4611,-2.4598,-2.4643,-2.4634,-2.4614,-2.4583,-2.4635,-2.4655,-2.4662,-2.4556,-2.4555,-2.4554,-2.4553,0,0,-2.4604,-2.4599,-2.4607,-2.4609,-2.4608,-2.462,-2.4643,-2.4653,-2.4662,-2.4667,-2.4685,-2.4706,-2.4688,-2.4692,-2.468,-2.4699,-2.4748,-2.4677,-2.4677,-2.469,-2.4799,-2.4813,-2.4823,-2.4737,-2.4738,-2.4739,-2.4799,0,-2.466,-2.4696,-2.4682,-2.472,-2.4735,-2.471,-2.4729,-2.4732,-2.4726,-2.4739,-2.4734,-2.4748,-2.4724,-2.4727,-2.4744,-2.4739,-2.477,-2.4734,-2.4754,-2.4755,-2.4753,-2.4833,-2.4847,-2.4903,-2.4806,-2.4807,-2.4808,0,-2.473,-2.4737,-2.4777,-2.4774,-2.478,-2.4798,-2.4807,-2.4819,-2.4822,-2.4817,-2.4823,-2.4808,-2.4831,-2.4801,-2.4833,-2.4809,-2.4816,-2.4815,-2.4817,-2.4817,-2.4784,-2.4834,-2.4921,-2.4929,-2.482,-2.4819,-2.4818,0,-2.4787,-2.4807,-2.4833,-2.4836,-2.4834,-2.4847,-2.4847,-2.4848,-2.4856,-2.4864,-2.4869,-2.488,-2.4886,-2.4896,-2.4884,-2.4863,-2.4918,-2.4887,-2.4914,-2.4915,-2.4926,-2.4925,-2.5014,-2.4932,-2.4932,-2.4932,-2.4932,0,-2.485,-2.4875,-2.4858,-2.4875,-2.4903,-2.4887,-2.4915,-2.4913,-2.4914,-2.493,-2.491,-2.4926,-2.491,-2.4924,-2.4916,-2.4944,-2.4947,-2.4944,-2.4941,-2.4945,-2.4945,-2.4949,-2.4944,-2.4934,-2.4934,-2.4933,-2.4933,0,-2.4917,-2.4907,-2.4934,-2.4931,-2.4931,-2.4951,-2.4949,-2.4964,-2.4958,-2.4979,-2.4983,-2.4974,-2.4991,-2.498,-2.4997,-2.4991,-2.5028,-2.502,-2.5027,-2.5024,-2.5052,-2.505,-2.5146,-2.5158,-2.5069,-2.507,-2.5071,0,-2.4958,-2.4977,-2.4976,-2.4985,-2.4986,-2.5001,-2.5009,-2.4995,-2.5004,-2.5009,-2.5025,-2.5039,-2.505,-2.5078,-2.5073,-2.5086,-2.5078,-2.5111,-2.508,-2.5084,-2.5078,-2.5077,-2.5079,-2.5117,-2.5118,-2.5119,-2.512,0,-2.5032,-2.5026,-2.5038,-2.5048,-2.5058,-2.5066,-2.5072,-2.5081,-2.5066,-2.5078,-2.5094,-2.5103,-2.512,-2.5135,-2.5147,-2.5148,-2.5132,-2.513,-2.5137,-2.5141,-2.5144,-2.5142,-2.5043,-2.5127,-2.5126,-2.5126,-2.5126,-2.5125,-2.5087,-2.5103,-2.5105,-2.5119,-2.5122,-2.5128,-2.5143,-2.5139,-2.5153,-2.5165,-2.5157,-2.5176,-2.518,-2.5194,-2.5197,-2.5213,-2.52,-2.521,-2.5213,-2.5215,-2.5219,-2.5142,-2.5215,-2.5215,-2.5215,-2.5215,-2.5215,0,-2.516,-2.516,-2.5173,-2.5182,-2.5194,-2.5178,-2.5184,-2.5195,-2.5212,-2.5217,-2.5229,-2.5248,-2.5263,-2.5261,-2.5275,-2.5288,-2.5281,-2.5292,-2.529,-2.5291,-2.523,-2.5222,-2.5297,-2.5297,-2.5297,-2.5297,-2.5297,-2.5297,-2.5198,-2.5225,-2.522,-2.5248,-2.5248,-2.5267,-2.5272,-2.5278,-2.5282,-2.5305,-2.5317,-2.5315,-2.5318,-2.5332,-2.5346,-2.5345,-2.5351,-2.5364,-2.5361,-2.5303,-2.5295,-2.5287,-2.528,-2.5366,-2.5366,-2.542,-2.5421,-2.5421]},{"header":{"parameterUnit":"m.s-1","parameterCategory":1,"la1":30.2991,"la2":30.254,"lo1":-89.0895,"lo2":-89.0444,"dy":0.0017,"dx":0.0017,"nx":28,"ny":28,"refTime":"2024-05-21T21:00:00:Z","depth":0,"parameterNumber":3,"parameterNumberName":"V-component_of_WINDS"},"data":[0,0,0,0,0,0,0,0,0,0,0,0,0,0,0,0,0,0,0,0,0,0,0,0,0,0,0,0,0,0,0,0,0,0,0,0,0,0,0,0,0,0,0,0,0,0,0,0,0,0,0,0,0,0,0,0,0,0,5.4633,5.4633,0,5.46,5.46,5.46,5.4559,5.4558,5.4558,5.4557,5.4521,5.4521,5.4521,0,0,0,0,0,0,0,0,0,0,0,0,0,5.4658,5.4658,5.4633,5.4633,5.4632,5.4601,5.46,5.46,5.4559,5.4558,5.4557,5.4557,5.4522,5.4521,5.4521,0,0,0,0,0,0,0,0,0,0,0,0,0,5.4639,5.4658,5.4633,5.4608,5.4606,5.4601,5.46,5.46,5.4559,5.4558,5.4557,5.4556,5.4522,5.4521,5.4521,5.4537,0,0,5.4519,5.4519,0,0,0,0,0,0,0,0,5.464,5.4638,5.4612,5.461,5.4607,5.4583,5.4596,5.4578,5.4559,5.4577,5.4557,5.4556,5.4542,5.454,5.4536,5.4535,5.4534,5.4519,5.4519,5.4518,5.4518,0,0,0,0,0,0,0,5.4641,5.4639,5.462,5.4612,5.4609,5.4598,5.4594,5.4592,5.4565,5.4575,5.4572,5.4569,5.4541,5.4537,5.4535,5.4533,5.4519,5.4519,5.4518,5.4518,5.4545,5.4546,0,0,0,0,0,0,5.4647,5.4641,5.4621,5.4619,5.4622,5.4598,5.4594,5.4591,5.4565,5.456,5.457,5.4567,5.4538,5.4536,5.4534,5.4552,5.4518,5.4518,5.4518,5.4544,5.4545,5.4546,0,0,0,0,0,0,5.4647,5.4645,5.4622,5.4629,5.4625,5.4599,5.4596,5.4591,5.4587,5.4561,5.4556,5.4571,5.4537,5.4534,5.4537,5.455,5.4518,5.4517,5.4543,5.4544,5.4546,5.4587,0,0,0,0,0,0,5.4648,5.4646,5.4652,5.4629,5.4625,5.4627,5.4597,5.4591,5.4587,5.4583,5.4561,5.4556,5.4536,5.4538,5.4536,5.4548,5.4517,5.4541,5.4543,5.4545,5.4585,5.459,5.4595,0,0,0,0,0,5.4649,5.4664,5.4653,5.465,5.4632,5.4628,5.4625,5.4602,5.4588,5.4594,5.4577,5.4557,5.4549,5.4538,5.4536,5.4549,5.454,5.4543,5.4545,5.4583,5.4589,5.4595,0,0,0,0,0,0,5.4688,5.4661,5.4648,5.4656,5.4645,5.4621,5.4627,5.461,5.4602,5.4599,5.457,5.4566,5.4572,5.456,5.4549,5.4563,5.4542,5.4544,5.4571,5.4577,5.4582,5.4585,5.4516,0,0,0,0,0,5.4698,5.4697,5.4673,5.4682,5.4678,5.4654,5.4651,5.4634,5.4621,5.4616,5.4599,5.4587,5.4581,5.4578,5.4572,5.4583,5.4578,5.459,5.4595,5.46,5.4602,5.4608,5.4613,5.4554,5.4554,5.4554,0,0,5.4718,5.4703,5.4703,5.469,5.4679,5.4678,5.465,5.465,5.4649,5.4615,5.4617,5.4605,5.4589,5.4596,5.4598,5.4587,5.4617,5.4603,5.4606,5.4606,5.4611,5.4616,5.4621,5.4555,5.4555,5.4555,0,0,5.4753,5.4742,5.4749,5.4739,5.4724,5.4708,5.471,5.4689,5.468,5.4681,5.4656,5.4655,5.4646,5.4636,5.463,5.4663,5.4644,5.4661,5.4688,5.4694,5.4698,5.4703,5.4715,5.472,5.4663,5.4664,5.4664,0,5.478,5.4778,5.4755,5.4757,5.4752,5.4723,5.473,5.4721,5.4704,5.4701,5.4688,5.4678,5.4665,5.467,5.4678,5.4674,5.4675,5.4664,5.47,5.4704,5.4707,5.4719,5.4723,5.4666,5.4666,5.4665,5.4665,0,5.4812,5.4811,5.4819,5.4804,5.48,5.4804,5.4781,5.478,5.4764,5.475,5.4752,5.4736,5.4726,5.4726,5.471,5.4729,5.4722,5.4705,5.4683,5.4715,5.4726,5.473,5.4669,5.4668,5.4668,5.4667,0,0,5.4871,5.4844,5.4847,5.4841,5.4822,5.4821,5.4824,5.4815,5.4815,5.4804,5.4807,5.48,5.4785,5.4778,5.4761,5.4766,5.4795,5.4748,5.4748,5.4758,5.4815,5.4828,5.4834,5.4782,5.4783,5.4783,5.4817,0,5.4903,5.4908,5.4888,5.4898,5.4897,5.487,5.4873,5.4862,5.4848,5.4846,5.483,5.4827,5.4806,5.4802,5.4806,5.479,5.4806,5.4787,5.4784,5.4784,5.4789,5.4839,5.4853,5.4885,5.482,5.4821,5.4822,0,5.4942,5.4935,5.4945,5.4927,5.4926,5.4929,5.492,5.4918,5.4904,5.4894,5.4887,5.4868,5.487,5.4849,5.4851,5.4839,5.4836,5.4829,5.4829,5.4828,5.4805,5.484,5.4895,5.49,5.4828,5.4827,5.4827,0,5.4985,5.4978,5.4983,5.4978,5.4957,5.496,5.4951,5.4937,5.4933,5.4925,5.4923,5.4914,5.491,5.4904,5.4883,5.487,5.4889,5.4865,5.488,5.4881,5.4886,5.4886,5.4942,5.4883,5.4883,5.4883,5.4883,0,5.5024,5.5032,5.5002,5.5006,5.5014,5.499,5.4998,5.4987,5.4974,5.4975,5.495,5.4952,5.4924,5.4922,5.4905,5.491,5.4908,5.49,5.4896,5.4903,5.4904,5.4901,5.4898,5.4884,5.4884,5.4884,5.4884,0,5.5073,5.5054,5.5059,5.5038,5.5033,5.504,5.5022,5.5025,5.501,5.5012,5.501,5.4987,5.4984,5.4963,5.4954,5.4943,5.4954,5.4944,5.4959,5.4956,5.4973,5.4972,5.5029,5.5035,5.4972,5.4973,5.4974,0,5.51,5.5105,5.5086,5.5085,5.5078,5.5076,5.5073,5.5049,5.5047,5.5033,5.5037,5.5032,5.5026,5.5022,5.5004,5.4997,5.4988,5.5009,5.4987,5.4994,5.499,5.499,5.4991,5.5014,5.5014,5.5015,5.5016,0,5.5149,5.514,5.5136,5.513,5.5126,5.512,5.5112,5.5112,5.5086,5.5085,5.5081,5.5077,5.5069,5.5064,5.5055,5.5045,5.5026,5.5023,5.5026,5.5033,5.5042,5.5038,5.4972,5.5021,5.5021,5.502,5.502,5.502,5.5188,5.5192,5.518,5.5177,5.5168,5.5162,5.5163,5.5149,5.5146,5.5138,5.5125,5.5123,5.511,5.5096,5.5088,5.5087,5.5076,5.508,5.5081,5.5083,5.5087,5.5042,5.5085,5.5084,5.5084,5.5084,5.5084,0,5.5237,5.5228,5.5225,5.5215,5.5213,5.5196,5.5187,5.5186,5.5185,5.5175,5.5171,5.5167,5.5163,5.5145,5.5139,5.5141,5.5132,5.514,5.514,5.5138,5.5097,5.5095,5.5148,5.5148,5.5147,5.5147,5.5147,5.5147,5.5262,5.5269,5.5258,5.526,5.525,5.5249,5.5245,5.5239,5.5231,5.5228,5.5225,5.5214,5.5201,5.5193,5.5188,5.5183,5.5182,5.5193,5.5186,5.5147,5.5141,5.5135,5.5134,5.5193,5.5193,5.5227,5.5228,5.5228]}]]